Location: Hilina Pali Trail
(19.2864°N, 155.2806°W)
Time: 00:52:02
(UTC+00:00)

Daily predictions for brighter satellites

Satellite Brightness Start Highest point End
(mag) Time Altitude Azimuth Time Altitude Azimuth Time Altitude Azimuth
Cosmos 1937 Rocket 3.4 05:12:39 10° S 05:17:45 72° ESE 05:22:51 10° NNE
Aurora 2 Rocket 3.7 05:11:16 10° WNW 05:18:28 61° N 05:23:23 10° E
Delta 7925 Rocket 3.2 05:16:13 10° WSW 05:20:50 90° NNE 05:25:45 10° ENE
Cosmos 1869 3.3 05:17:27 10° N 05:21:25 68° E 05:25:24 10° SSE
Sich 1 4.2 05:17:50 10° SSW 05:21:59 49° W 05:26:11 10° N
Cosmos 1707 Rocket 3.5 05:18:10 10° N 05:22:31 70° E 05:26:50 10° S
Lacrosse 5 rocket 2.2 05:19:09 10° SW 05:22:39 48° NW 05:26:06 10° NNE
Cosmos 1455 3.9 05:20:45 10° NNW 05:24:13 36° W 05:27:41 10° SSW
Milstar 3 4.4 05:06:13 10° WSW 05:25:57 90° NNW 05:35:34 10° ENE
FengYun 1-2 T 4.4 05:21:38 10° SSE 05:27:00 55° ENE 05:32:25 10° N
Tsikada Rocket 4.1 05:26:25 10° SSE 05:32:30 55° E 05:38:31 10° NNE
COSMOS 2455 2.8 05:26:36 10° SSW 05:32:35 76° ESE 05:38:34 10° NNE
Cosmos 2344 4.3 05:26:34 10° SSE 05:33:23 29° ESE 05:39:46 10° NE
Molniya-1 4.2 05:31:12 10° SW 05:34:01 47° WNW 05:36:02 10° NNE
Cosmos 192 4.3 05:30:28 10° N 05:35:25 71° ENE 05:40:20 10° SSE
Cosmos 2150 Rocket 4.3 05:30:15 10° SSW 05:35:39 76° WNW 05:41:00 10° N
Cosmos 1933 Rocket 3.5 05:31:40 10° S 05:35:56 67° E 05:40:14 10° N
ATLAS 2A CENTAUR R/B 4.4 05:31:58 10° WSW 05:36:08 23° S 05:45:38 10° SE
ALOS 3.1 05:37:50 10° S 05:42:21 52° W 05:46:54 10° NNW
Delta 168 4.0 05:41:31 10° WNW 05:44:24 29° N 05:47:52 10° ENE
Cosmos 2242 Rocket 3.7 05:40:57 10° N 05:45:16 52° E 05:49:32 10° SSE
Meteor 2-10 Rocket 4.1 05:39:49 10° N 05:45:22 46° E 05:50:47 10° SSE
Cosmos 1933 3.9 05:41:49 10° NNE 05:45:30 35° E 05:48:50 12° SSE
Hubble Space Telescope 0.9 05:45:36 10° WNW 05:49:44 67° NNE 05:52:40 18° E
Resurs 01 Rocket 1.9 05:47:16 10° SSE 05:51:27 46° ENE 05:55:41 10° N
Cosmos 1862 Rocket 4.1 05:47:43 10° NNE 05:51:54 39° E 05:55:19 14° SSE
Spot 2 Rocket 4.0 05:47:22 11° SE 05:51:58 42° ENE 05:56:45 10° N
Cosmos 2034 Rocket 4.0 05:46:40 10° N 05:52:46 64° E 05:58:49 10° SSE
H-2A R/B 3.1 05:49:02 10° S 05:52:56 69° W 05:56:51 10° NNW
Cosmos 1464 Rocket 4.2 05:51:58 10° N 05:58:18 78° W 06:04:40 10° S
SWIFT 3.7 05:55:32 10° SSW 05:58:43 21° SSE 05:59:32 20° SE
Ariane H10+ 3.5 06:03:30 10° WSW 06:10:29 21° SSW 06:12:34 17° SSE
Meteor 2-3 Rocket 3.8 06:06:04 10° S 06:11:50 84° W 06:17:32 10° N
Cosmos 1892 3.2 06:09:41 10° SSW 06:13:30 61° W 06:17:17 10° N
Cosmos 2082 Rocket 3.0 06:12:19 10° NNW 06:17:45 50° WSW 06:23:13 10° S
Cosmos 372 Rocket 4.0 06:13:21 10° S 06:18:19 52° ESE 06:23:17 10° NNE
OAO 2 Rocket 4.3 06:13:42 10° NW 06:18:22 36° NNE 06:20:38 24° ENE
Envisat 3.1 06:16:24 27° SE 06:19:02 56° ENE 06:23:58 10° N
Resurs 1-3 3.6 06:15:51 17° S 06:19:12 82° WSW 06:23:35 10° NNW
CZ-2D R/B 3.9 06:17:23 13° S 06:20:42 55° W 06:24:30 10° NNW
Cosmos 2346 Rocket 4.4 06:15:02 10° S 06:21:04 83° W 06:27:08 10° N
H-2A ROCKET BODY 3.1 06:20:01 10° NW 06:22:22 24° NNE 06:25:26 15° ENE
Cosmos 1833 Rocket 3.7 06:18:45 10° NNW 06:24:04 45° WSW 06:29:22 10° S
Meteor 1-26 Rocket 4.2 06:22:08 10° N 06:27:51 76° E 06:31:17 26° SSE
Cosmos 1703 Rocket 4.3 06:25:13 10° NNE 06:28:48 35° ENE 06:28:48 35° ENE
Cosmos 1943 Rocket 2.2 06:26:33 10° SSW 06:32:10 84° WNW 06:37:46 10° NNE
CENTAUR R/B 3.3 06:27:56 10° SW 06:33:23 47° WNW 06:39:21 10° NNE
Cosmos 1125 Rocket 3.5 06:29:09 10° SSW 06:34:25 81° WNW 06:39:39 10° N
Cosmos 1869 Rocket 3.4 06:33:55 31° S 06:35:58 88° W 06:40:19 10° N
Timation 2 Rocket 4.2 06:30:15 10° NNW 06:36:44 75° WSW 06:40:56 25° S
Helios 1B rocket 2.5 06:33:37 10° N 06:37:42 73° WNW 06:40:10 23° SSW
SL-19 R/B 4.4 06:36:47 43° SE 06:38:30 61° ENE 06:44:17 10° N
YAOGAN 6 3.9 06:43:58 31° NNE 06:43:58 31° NNE 06:46:12 10° N
GPS 2-15 Rocket1 3.4 06:39:04 10° W 06:43:35 51° SSW 06:43:37 51° SSW
USA 186 3.9 06:46:50 19° W 06:46:50 19° W 06:48:31 10° NW
SJ-11-01 4.2 06:50:47 71° S 06:51:18 88° WSW 06:56:02 10° NNW
GPS 2-17 Rocket1 3.0 06:47:33 10° W 06:51:41 74° WSW 06:51:41 74° WSW
Helios 1A 3.7 07:05:27 51° NNW 07:05:27 51° NNW 07:08:42 10° NNW
Cosmos 1346 Rocket 4.4 07:06:03 10° NNW 07:09:37 32° W 07:09:43 32° W
H-2A R/B 4.2 07:12:59 15° NE 07:12:59 15° NE 07:14:17 10° NNE
Cosmos 1939 Rocket 4.2 07:11:32 37° W 07:11:32 37° W 07:15:09 10° NNW
Aurora 2 Rocket 3.6 07:06:50 10° W 07:10:53 41° WSW 07:10:53 41° WSW
Delta 7925 Rocket 4.3 07:11:34 10° WNW 07:16:09 42° N 07:16:38 41° N
ERS-1 Rocket 3.9 07:23:38 41° N 07:23:38 41° N 07:26:53 10° N
Cosmos 1656 Rocket 4.2 07:29:14 53° NNW 07:29:14 53° NNW 07:33:44 10° N
ATLAS 5 CENTAUR R/B 3.8 07:23:36 10° N 07:27:32 28° NE 07:27:32 28° NE
Hubble Space Telescope 3.5 07:27:19 10° W 07:28:02 14° W 07:28:02 14° W
ARGOS 4.5 07:33:26 31° N 07:33:26 31° N 07:36:16 10° N
Delta 2 Rocket 4.3 07:30:09 10° WNW 07:36:41 76° N 07:36:41 76° N
Milstar 3 3.8 08:01:09 10° W 08:11:31 47° N 08:12:41 44° NNE
